CW9533 Torre Faro Messina IT current weather conditions

sailwx.info

Wind from 269 at 5 knots gusting 12

Air temperature 17.8° C
Dewpoint 12.7° C

Last reported at 2016-Apr-29 03:39 UTC.
Time now 2016-Apr-29 06:04 UTC

Location: N 38°16' E 015°39'.
View on Google Maps.

See reports from other nearby stations

  
Tides and Currents Weather Stations Pressure Air Temp Water Temp Dewpoint Dewpoint Depression Visibility Wind Speed Wind Dir Waves Ship Positions
date/time (UTC)wind fromknots sea level pressurealtimeterstation pressurevisibilityair tempwater tempwave heightnotes
2016-Apr-29 03:39 269 5 gusting 12 17.8
2016-Apr-29 03:24 268 6 gusting 9 16.7
2016-Apr-29 03:09 220 4 gusting 7 16.1
2016-Apr-29 02:54 220 0 gusting 5 16.1
2016-Apr-29 02:39 221 15.6
2016-Apr-29 02:24 218 15.0
2016-Apr-29 02:09 217 15.6
2016-Apr-29 01:54 217 16.7
2016-Apr-29 01:39 217 16.7
2016-Apr-29 01:24 217 16.7
2016-Apr-29 01:09 217 0 gusting 4 16.7
2016-Apr-29 00:54 217 0 gusting 6 16.7
2016-Apr-29 00:39 218 0 gusting 6 16.1
2016-Apr-29 00:24 218 1 gusting 5 16.7
2016-Apr-29 00:09 218 1 gusting 6 16.7
2016-Apr-28 23:53 219 1 gusting 4 17.2
2016-Apr-28 23:38 221 0 gusting 6 17.2
2016-Apr-28 23:23 221 2 gusting 6 16.7
2016-Apr-28 23:08 220 3 gusting 9 16.7
2016-Apr-28 22:53 217 4 gusting 9 16.7
2016-Apr-28 22:38 221 4 gusting 8 16.1
2016-Apr-28 22:23 219 4 gusting 8 16.1
2016-Apr-28 22:08 216 6 gusting 10 16.1
2016-Apr-28 21:53 215 3 gusting 9 16.1
2016-Apr-28 21:38 215 3 gusting 10 16.1
2016-Apr-28 21:23 215 5 gusting 8 16.1
2016-Apr-28 21:08 215 4 gusting 7 15.6
2016-Apr-28 20:53 215 3 gusting 6 15.6
2016-Apr-28 20:38 215 4 gusting 8 15.6
2016-Apr-28 20:23 213 2 gusting 6 15.6
2016-Apr-28 20:08 213 4 gusting 7 15.6
2016-Apr-28 19:53 213 2 gusting 6 16.1
2016-Apr-28 19:38 213 3 gusting 7 16.1
2016-Apr-28 19:23 213 3 gusting 6 16.1
2016-Apr-28 19:08 211 3 gusting 8 16.1
2016-Apr-28 18:53 214 3 gusting 8 16.1
2016-Apr-28 18:38 214 4 gusting 9 16.7
2016-Apr-28 18:23 214 6 gusting 11 16.7
2016-Apr-28 18:08 214 6 gusting 12 16.7
2016-Apr-28 17:53 207 3 gusting 10 16.7
2016-Apr-28 17:38 217 6 gusting 13 16.7
2016-Apr-28 17:23 209 3 gusting 13 16.7
2016-Apr-28 17:08 205 5 gusting 12 17.2
2016-Apr-28 16:53 216 3 gusting 10 18.3
2016-Apr-28 16:38 213 2 gusting 9 19.4
2016-Apr-28 16:23 229 6 gusting 11 19.4
2016-Apr-28 16:08 237 5 gusting 13 18.9
2016-Apr-28 15:53 232 6 gusting 16 18.3
2016-Apr-28 15:38 236 8 gusting 18 18.3
2016-Apr-28 15:23 244 8 gusting 15 17.8
2016-Apr-28 15:08 214 10 gusting 15 17.8
2016-Apr-28 14:53 231 9 gusting 23 17.2
2016-Apr-28 14:38 219 14 gusting 20 17.2
2016-Apr-28 14:23 228 13 gusting 26 17.2
2016-Apr-28 14:08 222 13 gusting 21 17.8
2016-Apr-28 13:53 195 18 gusting 26 17.8
2016-Apr-28 13:38 208 12 gusting 23 17.8
2016-Apr-28 13:23 232 13 gusting 19 17.8
2016-Apr-28 13:08 217 17 gusting 29 17.8
2016-Apr-28 12:53 210 13 gusting 24 18.3
2016-Apr-28 12:38 274 17 gusting 28 17.8
2016-Apr-28 12:23 226 14 gusting 26 18.3
2016-Apr-28 12:08 237 13 gusting 26 18.3
2016-Apr-28 11:53 207 14 gusting 26 18.3
2016-Apr-28 11:38 209 15 gusting 22 18.3
2016-Apr-28 11:23 231 13 gusting 23 17.8
2016-Apr-28 11:08 221 14 gusting 21 18.3
2016-Apr-28 10:53 236 14 gusting 26 18.3
2016-Apr-28 10:38 222 13 gusting 19 17.8
2016-Apr-28 10:23 211 11 gusting 18 17.8
2016-Apr-28 10:08 225 11 gusting 18 17.2
2016-Apr-28 09:53 222 10 gusting 17 16.7
2016-Apr-28 09:37 217 11 gusting 21 16.7
2016-Apr-28 09:22 240 14 gusting 22 17.2
2016-Apr-28 09:07 217 13 gusting 21 17.2
2016-Apr-28 08:52 205 12 gusting 19 17.2
2016-Apr-28 08:37 208 10 gusting 18 17.2
2016-Apr-28 08:22 242 8 gusting 17 16.7
2016-Apr-28 08:07 213 9 gusting 15 16.7
2016-Apr-28 07:52 216 6 gusting 12 16.7
2016-Apr-28 07:37 214 8 gusting 15 16.7
2016-Apr-28 07:22 219 7 gusting 14 16.7
2016-Apr-28 07:07 207 7 gusting 13 16.7
2016-Apr-28 06:52 202 7 gusting 16 16.1
2016-Apr-28 06:37 218 6 gusting 12 16.1
2016-Apr-28 06:22 216 4 gusting 13 16.1
2016-Apr-28 06:07 217 6 gusting 11 16.1
2016-Apr-28 05:52 215 5 gusting 10 16.1
2016-Apr-28 05:37 213 3 gusting 6 15.6
2016-Apr-28 05:22 213 2 gusting 6 15.6
2016-Apr-28 05:07 213 1 gusting 4 15.6
2016-Apr-28 04:52 213 15.0
2016-Apr-28 04:37 214 14.4
2016-Apr-28 04:22 214 14.4
2016-Apr-28 04:07 214 14.4
2016-Apr-28 03:52 215 14.4
2016-Apr-28 03:37 214 14.4
2016-Apr-28 03:22 214 15.6
2016-Apr-28 03:07 214 0 gusting 3 15.6
2016-Apr-28 02:52 214 15.6
2016-Apr-28 02:37 214 1 gusting 3 15.0
2016-Apr-28 02:22 215 15.0
2016-Apr-28 02:07 215 0 gusting 3 15.0
2016-Apr-28 01:52 215 15.0
2016-Apr-28 01:37 215 15.0
2016-Apr-28 01:22 215 15.0
2016-Apr-28 01:07 215 15.0
2016-Apr-28 00:52 215 15.0
2016-Apr-28 00:37 215 15.0
2016-Apr-28 00:22 215 15.0
2016-Apr-28 00:07 215 15.0
2016-Apr-27 23:52 216 15.0
2016-Apr-27 23:37 216 15.0
2016-Apr-27 23:22 216 15.6
2016-Apr-27 23:07 216 16.1
2016-Apr-27 22:52 216 16.1
2016-Apr-27 22:37 216 0 gusting 5 16.1
2016-Apr-27 22:22 216 1 gusting 6 16.1
2016-Apr-27 22:07 215 1 gusting 6 16.7
2016-Apr-27 21:51 215 1 gusting 3 16.7
2016-Apr-27 21:36 215 0 gusting 5 16.7
2016-Apr-27 21:21 215 16.7
2016-Apr-27 21:06 215 0 gusting 5 16.7
2016-Apr-27 20:51 215 1 gusting 4 16.7
2016-Apr-27 20:36 215 16.1
2016-Apr-27 20:21 215 16.1
2016-Apr-27 20:06 215 0 gusting 4 16.7
2016-Apr-27 19:51 215 1 gusting 4 16.1
2016-Apr-27 19:36 215 16.7
2016-Apr-27 19:21 215 16.7
2016-Apr-27 19:06 215 1 gusting 6 16.7
2016-Apr-27 18:51 215 1 gusting 4 16.7
2016-Apr-27 18:36 215 0 gusting 5 16.7
2016-Apr-27 18:21 215 1 gusting 5 16.7
2016-Apr-27 18:06 215 1 gusting 5 16.7
2016-Apr-27 17:51 215 2 gusting 6 16.7
2016-Apr-27 17:36 215 2 gusting 7 16.7
2016-Apr-27 17:21 215 3 gusting 7 16.7
2016-Apr-27 17:06 215 4 gusting 7 17.2
2016-Apr-27 16:51 215 4 gusting 7 17.2
2016-Apr-27 16:36 214 4 gusting 9 17.2
2016-Apr-27 16:21 215 4 gusting 8 17.2
2016-Apr-27 16:06 215 5 gusting 9 17.8
2016-Apr-27 15:51 217 4 gusting 8 17.8
2016-Apr-27 15:36 219 6 gusting 10 17.8
2016-Apr-27 15:21 218 6 gusting 10 17.8
2016-Apr-27 15:06 218 6 gusting 10 17.8
2016-Apr-27 14:51 215 6 gusting 10 17.8
2016-Apr-27 14:36 217 5 gusting 10 17.8
2016-Apr-27 14:21 218 5 gusting 10 17.8
2016-Apr-27 14:06 217 6 gusting 11 17.8
2016-Apr-27 13:51 216 6 gusting 12 17.8
2016-Apr-27 13:36 220 6 gusting 11 17.8
2016-Apr-27 13:21 211 6 gusting 11 17.8
2016-Apr-27 13:06 223 6 gusting 11 17.8
2016-Apr-27 12:51 223 5 gusting 13 17.8
2016-Apr-27 12:36 225 7 gusting 12 17.8
2016-Apr-27 12:21 221 6 gusting 11 17.8
2016-Apr-27 12:06 217 7 gusting 13 17.2
2016-Apr-27 11:51 217 7 gusting 13 17.2
2016-Apr-27 11:36 225 7 gusting 13 17.2
2016-Apr-27 11:21 227 7 gusting 17 16.7
2016-Apr-27 11:06 218 7 gusting 14 16.7
2016-Apr-27 10:51 204 9 gusting 15 16.7
2016-Apr-27 10:36 219 8 gusting 16 16.7
2016-Apr-27 10:21 215 9 gusting 15 16.7
2016-Apr-27 10:06 213 8 gusting 17 16.1
2016-Apr-27 09:51 263 9 gusting 14 16.1
2016-Apr-27 09:36 240 11 gusting 16 16.1
2016-Apr-27 09:21 214 9 gusting 18 16.1
2016-Apr-27 09:06 226 9 gusting 16 16.1
2016-Apr-27 08:51 215 7 gusting 14 16.1
2016-Apr-27 08:36 225 6 gusting 14 16.7
2016-Apr-27 08:21 222 8 gusting 16 16.1
2016-Apr-27 08:06 240 8 gusting 15 15.6
2016-Apr-27 07:51 207 7 gusting 17 15.6
2016-Apr-27 07:36 220 6 gusting 13 15.6
2016-Apr-27 07:21 215 6 gusting 10 15.6
2016-Apr-27 07:06 220 2 gusting 7 15.0
2016-Apr-27 06:51 076 1 gusting 7 15.6
2016-Apr-27 06:36 045 0 gusting 4 15.0
2016-Apr-27 06:21 044 2 gusting 6 15.0
2016-Apr-27 06:06 043 0 gusting 5 15.0